Location: Harwich
(41.7160°N, 69.9939°W)
Time: 17:04:15
(UTC+01:00)

Vanguard 3 - Visible Passes

Search period start: 02 December 2023 00:00
Search period end: 12 December 2023 00:00
Orbit: 507 x 3241 km, 33.3° (Epoch: 01 December)

Date Brightness Start Highest point End Pass type
(mag) Time Alt. Az. Time Alt. Az. Time Alt. Az.
02 Dec 11.0 03:08:05 10° SSW 03:08:09 10° SSW 03:08:09 10° SSW visible
03 Dec 10.5 01:50:48 10° SSW 01:55:47 17° S 01:55:47 17° S visible
04 Dec 10.6 00:35:34 10° S 00:41:18 13° SSE 00:43:25 12° SE visible
04 Dec 10.6 02:43:46 10° SW 02:47:45 18° SSW 02:47:45 18° SSW visible
05 Dec 10.3 01:25:55 10° SSW 01:35:21 23° SSE 01:35:21 23° SSE visible
05 Dec 10.9 03:38:25 10° SW 03:39:41 13° SW 03:39:41 13° SW visible
06 Dec 10.5 00:09:35 10° S 00:18:33 17° SSE 00:22:58 14° SE visible
06 Dec 10.2 02:19:27 10° SW 02:27:18 27° SSW 02:27:18 27° SSW visible
07 Dec 10.0 01:01:09 10° SSW 01:13:55 28° SSE 01:14:53 28° SSE visible
07 Dec 10.6 03:14:27 10° SW 03:19:13 22° SW 03:19:13 22° SW visible
07 Dec 10.4 23:44:15 10° S 23:55:36 21° SSE 00:02:28 14° ESE visible
08 Dec 9.9 01:55:07 10° SW 02:06:47 37° S 02:06:47 37° S visible
08 Dec 11.0 04:10:14 10° WSW 04:11:07 12° WSW 04:11:07 12° WSW visible
08 Dec 11.0 22:30:29 10° SSE 22:37:11 13° SE 22:43:13 10° ESE visible
09 Dec 9.9 00:36:32 10° SSW 00:51:01 32° SSE 00:54:20 29° SE visible
09 Dec 10.2 02:50:24 10° WSW 02:58:40 32° SW 02:58:40 32° SW visible
09 Dec 10.5 23:19:15 10° SSW 23:32:30 24° SSE 23:41:51 12° ESE visible
10 Dec 9.6 01:30:49 10° SW 01:46:11 44° SSE 01:46:11 44° SSE visible
10 Dec 10.7 03:46:23 10° WSW 03:50:30 20° WSW 03:50:30 20° WSW visible
11 Dec 10.0 00:12:02 10° SSW 00:27:56 36° SSE 00:33:41 28° ESE visible
11 Dec 9.8 02:26:17 10° WSW 02:38:00 44° SSW 02:38:00 44° SSW visible
11 Dec 10.6 22:54:33 10° SSW 23:09:13 28° SSE 23:20:57 10° E visible
